Overview Statistics Trail Chart Weather Telemetry Raw packets
 

This is the latest recevied weather packets stored in our database for station/object 4S6DRJ-13. If no packets are shown the sender has not sent any weather packets the latest 10 day(s).

<< 262 263 264 265 266 267 268 >>
Time Temp. Humidity Pressure Rain* Wind** Luminosity Snow
1788082891 30.56° C 70% 1007.8 hPa 0 mm 1.79 m/s, 322° 627 W/m² -
1788082830 30.56° C 69% 1007.9 hPa 0 mm 1.79 m/s, 252° 397 W/m² -
1788082769 30.56° C 69% 1007.9 hPa 0 mm 1.79 m/s, 248° 356 W/m² -
1788082708 30.56° C 70% 1007.8 hPa 0 mm 1.34 m/s, 319° 323 W/m² -
1788082647 30.56° C 69% 1008 hPa 0 mm 2.24 m/s, 255° 390 W/m² -
1788082586 30.56° C 71% 1008 hPa 0 mm 1.34 m/s, 295° 393 W/m² -
1788082525 30.56° C 72% 1007.8 hPa 0 mm 0.89 m/s, 241° 545 W/m² -
1788082464 30.56° C 71% 1007.8 hPa 0 mm 1.79 m/s, 324° 409 W/m² -
1788082403 30.56° C 70% 1007.8 hPa 0 mm 2.68 m/s, 199° 470 W/m² -
1788082343 30.56° C 71% 1007.8 hPa 0 mm 1.79 m/s, 257° 403 W/m² -
1788082281 30.56° C 71% 1007.8 hPa 0 mm 1.79 m/s, 154° 978 W/m² -
1788082220 30.56° C 70% 1007.8 hPa 0 mm 0.45 m/s, 3° 313 W/m² -
1788082159 30.56° C 70% 1007.7 hPa 0 mm 2.24 m/s, 306° 553 W/m² -
1788082098 30.56° C 70% 1007.8 hPa 0 mm 1.79 m/s, 225° 641 W/m² -
1788082037 30.56° C 71% 1007.8 hPa 0 mm 1.79 m/s, 265° 447 W/m² -
1788081976 30.56° C 71% 1008 hPa 0 mm 0.45 m/s, 309° 412 W/m² -
1788081914 30.56° C 70% 1007.5 hPa 0 mm 1.34 m/s, 290° 1103 W/m² -
1788081854 30.56° C 70% 1007.7 hPa 0 mm 2.68 m/s, 57° 604 W/m² -
1788081793 30.56° C 71% 1007.7 hPa 0 mm 1.79 m/s, 231° 403 W/m² -
1788081732 30.56° C 71% 1007.7 hPa 0 mm 1.79 m/s, 224° 732 W/m² -
1788081671 30.56° C 70% 1007.8 hPa 0 mm 3.13 m/s, 304° 311 W/m² -
1788081613 30.56° C 70% 1007.6 hPa 0 mm 2.68 m/s, 308° 367 W/m² -
1788081549 31.11° C 70% 1007.8 hPa 0 mm 1.34 m/s, 270° 461 W/m² -
1788081488 31.11° C 70% 1007.6 hPa 0 mm 1.79 m/s, 306° 683 W/m² -
1788081427 31.11° C 69% 1007.7 hPa 0 mm 1.79 m/s, 256° 396 W/m² -

* Rain latest hour (hover to see other rain measurements)
** Current wind speed in m/s (hover to see current wind gust speed)